Regional Weather Roundup
Issued by NWS

Home | Current Version | Previous Version | Text Only | Print | Product List | Glossary On
Versions: 1 2 3 4 5 6 7 8 9 10 11 12 13 14 15 16 17 18 19 20 21 22 23 24 25 26 27 28 29 30 31 32 33 34 35 36 37 38 39 40 41 42 43 44 45 46 47 48 49 50
000
ASUS43 KMKX 070621
RWRWI

WISCONSIN REGIONAL WEATHER ROUNDUP
NATIONAL WEATHER SERVICE MILWAUKEE/SULLIVAN WI
1200 AM CST WED DEC 07 2016

NOTE: "FAIR" INDICATES FEW OR NO CLOUDS BELOW 12,000 FEET WITH NO
SIGNIFICANT WEATHER AND/OR OBSTRUCTIONS TO VISIBILITY.

WIZ001-002-006>008-014>016-023>028-070700-
NORTHWEST WISCONSIN

CITY           SKY/WX    TMP DP  RH WIND       PRES   REMARKS
SUPERIOR ARPT  CLOUDY    23  16  74 SW16G24   29.63R WCI   9
6HR MIN TEMP:  22; 6HR MAX TEMP:  23;

ASHLAND        LGT SNOW  21  15  78 SW16G30   29.62S WCI   7
6HR MIN TEMP:  21; 6HR MAX TEMP:  23; 6HR PCP: TRACE;

HAYWARD        LGT SNOW  19  12  74 SW15G22   29.67R WCI   5
6HR MIN TEMP:  19; 6HR MAX TEMP:  22; 6HR PCP: TRACE;

SIREN          FLURRIES  20  13  74 W21G30    29.73R WCI   3
6HR MIN TEMP:  19; 6HR MAX TEMP:  23;

CUMBERLAND     LGT SNOW  19  12  73 W17G29    29.73R WCI   4
RICE LAKE      LGT SNOW  20  13  75 SW13G22   29.76S WCI   7
6HR MIN TEMP:  20; 6HR MAX TEMP:  22;

CHETEK         FLURRIES  19  14  80 MISG      29.77R
6HR MIN TEMP:  19; 6HR MAX TEMP:  22;

LADYSMITH      FLURRIES  20  15  80 SW16G23   29.74R WCI   6
6HR MIN TEMP:  20; 6HR MAX TEMP:  22;

EAU CLAIRE     FLURRIES  18  12  77 W16G26    29.81R WCI   3
6HR MIN TEMP:  18; 6HR MAX TEMP:  23; 6HR PCP: TRACE;

MENOMONIE      CLOUDY    19  13  75 SW18G26   29.83R WCI   4
6HR MIN TEMP:  19; 6HR MAX TEMP:  24;

NEW RICHMOND   FLURRIES  19  12  73 W17G26    29.80R WCI   4
6HR MIN TEMP:  19; 6HR MAX TEMP:  22;

OSCEOLA        FLURRIES  20  13  73 W20G28    29.84R WCI   5
6HR MIN TEMP:  20; 6HR MAX TEMP:  23;

$$

WIZ003>005-009-010-017-018-070700-
NORTH CENTRAL WISCONSIN

CITY           SKY/WX    TMP DP  RH WIND       PRES   REMARKS
MANITOWISH WTR FLURRIES  18  15  85 SW13G18   29.61R WCI   5
6HR MIN TEMP:  18; 6HR MAX TEMP:  19;

ARBOR VITAE    LGT SNOW  20  15  79 SW15G25   29.63R WCI   7
6HR MIN TEMP:  20; 6HR MAX TEMP:  22;

WOODRUFF       LGT SNOW  20  15  79 SW15G25   29.63R WCI   7
6HR MIN TEMP:  20; 6HR MAX TEMP:  22;

RHINELANDER    LGT SNOW  20  14  77 SW22G32   29.66R WCI   3
6HR MIN TEMP:  20; 6HR MAX TEMP:  21; 6HR PCP: TRACE;

EAGLE RIVER    LGT SNOW  19  13  76 W22G29    29.62R WCI   3
6HR MIN TEMP:  19; 6HR MAX TEMP:  21;

LAND O LAKES   FLURRIES  20  15  79 SW12G20   29.61S WCI   8
6HR MIN TEMP:  20; 6HR MAX TEMP:  21;

PHILLIPS       FLURRIES  18  14  83 SW15G30   29.67R WCI   4
6HR MIN TEMP:  18; 6HR MAX TEMP:  20;

TOMAHAWK       LGT SNOW  19  13  80 SW3G18    29.69S
6HR MIN TEMP:  19; 6HR MAX TEMP:  20;

MEDFORD        FLURRIES  17  11  77 W18G29    29.72R WCI   1
6HR MIN TEMP:  17; 6HR MAX TEMP:  20;

MERRILL        LGT SNOW  20  14  78 W20G29    29.73R WCI   5
6HR MIN TEMP:  20; 6HR MAX TEMP:  22;

$$

WIZ029-030-035-036-043>047-070700-
CENTRAL WISCONSIN

CITY           SKY/WX    TMP DP  RH WIND       PRES   REMARKS
WAUSAU         CLOUDY    21  14  74 W15G29    29.74R WCI   8
6HR MIN TEMP:  21; 6HR MAX TEMP:  22; 6HR PCP: TRACE;

MOSINEE        CLOUDY    21  18  86 SW24G30   29.76R WCI   4
MARSHFIELD     CLOUDY    20  13  74 W21G30    29.77R WCI   4
6HR MIN TEMP:  20; 6HR MAX TEMP:  22; 6HR PCP: TRACE;

STEVENS POINT  CLOUDY    22  15  74 W17G25    29.79R WCI   7
6HR MIN TEMP:  22; 6HR MAX TEMP:  22;

WAUPACA        CLOUDY    27  19  69 SW13      29.81S WCI  17
6HR MIN TEMP:  27; 6HR MAX TEMP:  28;

WAUTOMA        CLOUDY    25  17  72 W15G23    29.84R WCI  13
6HR MIN TEMP:  25; 6HR MAX TEMP:  25;

WISC RAPIDS    CLOUDY    23  15  71 W15G25    29.82R WCI  10
6HR MIN TEMP:  23; 6HR MAX TEMP:  24;

CAMP DOUGLAS   MOCLDY    23  15  71 W15       29.85R WCI  10
6HR MIN TEMP:  23; 6HR MAX TEMP:  25; 6HR PCP: TRACE;

$$

WIZ011>013-019>022-031-037>040-048>050-070700-
NORTHEAST WISCONSIN

CITY           SKY/WX    TMP DP  RH WIND       PRES   REMARKS
ANTIGO         FLURRIES  20  15  79 W23G32    29.70R WCI   4
6HR MIN TEMP:  20; 6HR MAX TEMP:  21;

SHAWANO        CLOUDY    28  18  66 W20G25    29.77S WCI  14
6HR MIN TEMP:  27; 6HR MAX TEMP:  29;

OCONTO         CLOUDY    27  16  63 W22G30    29.77R WCI  12
6HR MIN TEMP:  26; 6HR MAX TEMP:  31;

STURGEON BAY   FLURRIES  27  17  66 W21G32    29.76S WCI  13
6HR MIN TEMP:  26; 6HR MAX TEMP:  33;

GREEN BAY      CLOUDY    29  19  66 SW14G23   29.80R WCI  18
6HR MIN TEMP:  28; 6HR MAX TEMP:  32; 6HR PCP: TRACE;

MANITOWOC      CLOUDY    28  18  66 W20       29.82R WCI  15
6HR MIN TEMP:  27; 6HR MAX TEMP:  33;

APPLETON       CLOUDY    27  16  63 W20G29    29.79S WCI  13
CLINTONVILLE   CLOUDY    27  18  69 W20       29.79R WCI  13
OSHKOSH        MOCLDY    26  16  65 VRB7G18   29.82S WCI  18
6HR MIN TEMP:  25; 6HR MAX TEMP:  27;

$$

WIZ032>034-041-042-053>061-070700-
SOUTHWEST WISCONSIN

CITY           SKY/WX    TMP DP  RH WIND       PRES   REMARKS
LA CROSSE      CLOUDY    23  14  68 W10       29.92S WCI  12
6HR MIN TEMP:  23; 6HR MAX TEMP:  27; 6HR PCP: TRACE;

SPARTA         FLURRIES  22  15  74 W15G22    29.89R WCI   8
6HR MIN TEMP:  22; 6HR MAX TEMP:  25;

VIROQUA        CLOUDY    20  13  76 W18G32    29.88R WCI   4
6HR MIN TEMP:  20; 6HR MAX TEMP:  24;

BOSCOBEL       PTCLDY    25  15  66 SW10      29.95R WCI  15
6HR MIN TEMP:  25; 6HR MAX TEMP:  28;

PRAIRIE DU CHI CLOUDY    23  13  66 W9G17     29.97S WCI  13
6HR MIN TEMP:  23; 6HR MAX TEMP:  28;

PLATTEVILLE    CLEAR     22  17  78 W13       29.94S WCI  10
6HR MIN TEMP:  22; 6HR MAX TEMP:  28;

$$

WIZ056-057-062-063-064-067-068-070700-
SOUTH CENTRAL WISCONSIN

CITY           SKY/WX    TMP DP  RH WIND       PRES   REMARKS
REEDSBURG      CLOUDY    24  17  74 W15       29.89R WCI  11
BARABOO/DELLS  CLOUDY    24  16  70 W13       29.87R WCI  13
6HR MIN TEMP:  24; 6HR MAX TEMP:  26;

LONE ROCK      PTCLDY    24  15  68 W13G25    29.92S WCI  12
6HR MIN TEMP:  24; 6HR MAX TEMP:  28;

MINERAL POINT  CLEAR     23  18  80 W15       29.91S WCI  10
MADISON        CLOUDY    24  15  68 VRB5      29.90R WCI  18
6HR MIN TEMP:  24; 6HR MAX TEMP:  27;

MIDDLETON      NOT AVBL
WATERTOWN      CLOUDY    25  17  73 SW13      29.89R WCI  13
6HR MIN TEMP:  25; 6HR MAX TEMP:  27;

MONROE         CLEAR     23  18  80 W17       29.92R WCI   9
JANESVILLE     CLEAR     27  19  74 W8        29.94R WCI  18
$$

WIZ051-052-058>065-066-070>072-070700-
SOUTHEAST WISCONSIN

CITY           SKY/WX    TMP DP  RH WIND       PRES   REMARKS
MILWAUKEE      PTCLDY    28  16  60 W15G26    29.89S WCI  16
6HR MIN TEMP:  28; 6HR MAX TEMP:  33;

WAUKESHA       PTCLDY    25  16  68 W14G23    29.90R WCI  13
MILWAUKEE/TIMM PTCLDY    27  18  69 W14G21    29.88S WCI  15
RACINE         CLEAR     27  17  66 W16       29.91S WCI  15
6HR MIN TEMP:  27; 6HR MAX TEMP:  32;

BURLINGTON     CLEAR     25  18  76 W10G18    29.92S WCI  15
6HR MIN TEMP:  25; 6HR MAX TEMP:  28;

KENOSHA        CLEAR     26  17  68 W17       29.91S WCI  13
6HR MIN TEMP:  26; 6HR MAX TEMP:  31;

FOND DU LAC    CLOUDY    26  15  63 W14       29.85R WCI  14
6HR MIN TEMP:  26; 6HR MAX TEMP:  28;

SHEBOYGAN      CLOUDY    27  17  66 W25G35    29.84R WCI  12
6HR MIN TEMP:  26; 6HR MAX TEMP:  32;

WEST BEND      CLOUDY    27  19  74 W9G24     29.86R WCI  17
JUNEAU         CLOUDY    25  18  75 W16       29.88R WCI  12
6HR MIN TEMP:  24; 6HR MAX TEMP:  26;

$$

LSZ147-162-070700-
LAKE SUPERIOR

STATION/POSITION TIME  TEMP    WIND        PRES    WAVE
                       AIR SEA DIR/SP/G            HT/PER
                 (UTC) (F)     (DEG/KT/KT) (MB)    (FT/S)
DEVILS ISLAND    0600   25     220/ 26/ 32 1001.9R
PORT WING        0540   23     230/ 14/ 23 1002.7R
SAXON HARBOR     0540   23     200/ 14/ 24 1003.4R
$$

LMZ867-665-643>646-070700-
LAKE MICHIGAN

STATION/POSITION TIME  TEMP    WIND        PRES    WAVE
                       AIR SEA DIR/SP/G            HT/PER
                 (UTC) (F)     (DEG/KT/KT) (MB)    (FT/S)
CHAMBERS ISLAND  0540   28     230/ 11/ 2C1F1C2F2C3F3C4F4C5F5C6F6C7F7C8M1C9M2Ca!


USA.gov is the U.S. government's official web portal to all federal, state and local government web resources and services.